CSN305 ZGGG-NZAA

Flight info

Callsign CSN305
Flight time N/A
Altitude 24600
Route VIBOS9 VIBOS R473 SIERA/N0496F350 DCT MULET/N0494F370 DCT NOMAN A461 AVMUP W16 MIA B462 MIMIK/N0487F390 B462 BIK G459 WP B473 CS Y177 AKROM Z25 ALBUX W112 OVRON/N0478F410 A346 SALAG
Aircraft A359/H-SDE2E3GHIJ3J4J5LM1ORWXY/LB1D1

Departure

Time 2026-05-06 12:49
Airport Guangzhou Baiyun International Airport (ZGGG)

Arrival

Time N/A
Airport Auckland International Airport (NZAA)
Time Latitude Longitude Altitude Speed Heading
2026-05-06 12:35 23.39072 113.29303 65 ft 0 kts 181°
2026-05-06 12:37 23.39074 113.29303 55 ft 2 kts 181°
2026-05-06 12:37 23.39101 113.29303 58 ft 4 kts 181°
2026-05-06 12:38 23.39119 113.29304 60 ft 4 kts 181°
2026-05-06 12:38 23.39145 113.29304 59 ft 2 kts 181°
2026-05-06 12:38 23.39167 113.29308 55 ft 4 kts 228°
2026-05-06 12:38 23.39173 113.29331 58 ft 4 kts 274°
2026-05-06 12:39 23.39172 113.29344 65 ft 5 kts 271°
2026-05-06 12:41 23.39171 113.29333 60 ft 4 kts 267°
2026-05-06 12:41 23.39168 113.29298 61 ft 0 kts 264°
2026-05-06 12:43 23.39169 113.29297 61 ft 1 kts 267°
2026-05-06 12:43 23.39170 113.29275 59 ft 7 kts 274°
2026-05-06 12:43 23.39174 113.29190 57 ft 14 kts 272°
2026-05-06 12:43 23.39186 113.29087 62 ft 14 kts 285°
2026-05-06 12:44 23.39201 113.28983 58 ft 14 kts 256°
2026-05-06 12:44 23.39128 113.28932 60 ft 13 kts 195°
2026-05-06 12:44 23.39036 113.28908 60 ft 15 kts 194°
2026-05-06 12:44 23.38929 113.28879 59 ft 17 kts 194°
2026-05-06 12:45 23.38808 113.28846 60 ft 19 kts 194°
2026-05-06 12:45 23.38680 113.28812 58 ft 19 kts 194°
2026-05-06 12:45 23.38413 113.28740 56 ft 20 kts 194°
2026-05-06 12:46 23.38276 113.28702 55 ft 21 kts 194°
2026-05-06 12:46 23.38135 113.28664 57 ft 21 kts 194°
2026-05-06 12:46 23.37992 113.28626 55 ft 21 kts 194°
2026-05-06 12:46 23.37847 113.28587 56 ft 22 kts 194°
2026-05-06 12:47 23.37708 113.28548 55 ft 15 kts 199°
2026-05-06 12:47 23.37684 113.28469 57 ft 9 kts 279°
2026-05-06 12:47 23.37698 113.28400 57 ft 10 kts 289°
2026-05-06 12:47 23.37733 113.28372 57 ft 6 kts 350°
2026-05-06 12:48 23.37824 113.28388 60 ft 29 kts 13°
2026-05-06 12:48 23.38238 113.28499 54 ft 90 kts 14°
2026-05-06 12:48 23.39004 113.28706 62 ft 139 kts 14°
2026-05-06 12:48 23.40090 113.28991 162 ft 173 kts 13°
2026-05-06 12:49 23.41212 113.29293 778 ft 167 kts 15°
2026-05-06 12:49 23.42400 113.29342 1138 ft 176 kts 346°
2026-05-06 12:49 23.43603 113.28936 1409 ft 191 kts 339°
2026-05-06 12:49 23.44933 113.28451 1580 ft 212 kts 343°
2026-05-06 12:50 23.46422 113.28001 1783 ft 233 kts 346°
2026-05-06 12:50 23.48039 113.27571 2157 ft 245 kts 347°
2026-05-06 12:50 23.49726 113.27149 2701 ft 250 kts 347°
2026-05-06 12:50 23.51438 113.26743 3276 ft 253 kts 349°
2026-05-06 12:51 23.53172 113.26358 3848 ft 255 kts 349°
2026-05-06 12:51 23.54935 113.25897 4211 ft 268 kts 344°
2026-05-06 12:51 23.56758 113.25320 4701 ft 275 kts 343°
2026-05-06 12:51 23.58572 113.24620 5198 ft 277 kts 333°
2026-05-06 12:52 23.60084 113.23355 5777 ft 274 kts 313°
2026-05-06 12:52 23.61360 113.21818 6480 ft 272 kts 310°
2026-05-06 12:52 23.62605 113.20261 7089 ft 273 kts 310°
2026-05-06 12:52 23.63761 113.18646 7629 ft 275 kts 300°
2026-05-06 12:53 23.64396 113.16698 8211 ft 274 kts 276°
2026-05-06 12:53 23.64219 113.14652 8809 ft 274 kts 253°
2026-05-06 12:53 23.63260 113.12856 9411 ft 277 kts 231°
2026-05-06 12:53 23.61888 113.11363 9991 ft 280 kts 227°
2026-05-06 12:54 23.60438 113.09890 10320 ft 293 kts 227°
2026-05-06 12:54 23.58789 113.08491 10525 ft 311 kts 213°
2026-05-06 12:54 23.56669 113.07762 10677 ft 332 kts 189°
2026-05-06 12:54 23.54306 113.07694 10928 ft 347 kts 184°
2026-05-06 12:55 23.51855 113.07738 11183 ft 358 kts 183°
2026-05-06 12:55 23.49340 113.07782 11536 ft 364 kts 183°
2026-05-06 12:55 23.46802 113.07818 11970 ft 367 kts 183°
2026-05-06 12:55 23.44237 113.07848 12426 ft 370 kts 184°
2026-05-06 12:56 23.41654 113.07867 12876 ft 373 kts 184°
2026-05-06 12:56 23.39054 113.07883 13313 ft 375 kts 184°
2026-05-06 12:56 23.36434 113.07899 13757 ft 378 kts 184°
2026-05-06 12:56 23.33801 113.07914 14143 ft 380 kts 184°
2026-05-06 12:57 23.31151 113.07930 14542 ft 381 kts 184°
2026-05-06 12:57 23.28497 113.07948 14943 ft 383 kts 184°
2026-05-06 12:57 23.25830 113.08258 15274 ft 391 kts 170°
2026-05-06 12:57 23.23257 113.09243 15702 ft 394 kts 162°
2026-05-06 12:58 23.20723 113.10403 16130 ft 395 kts 161°
2026-05-06 12:58 23.18184 113.11575 16492 ft 398 kts 161°
2026-05-06 12:58 23.15656 113.12735 16820 ft 401 kts 161°
2026-05-06 12:58 23.13083 113.13912 17208 ft 403 kts 161°
2026-05-06 12:59 23.10492 113.15094 17586 ft 404 kts 162°
2026-05-06 12:59 23.07896 113.16277 17973 ft 406 kts 162°
2026-05-06 12:59 23.05280 113.17467 18328 ft 408 kts 162°
2026-05-06 12:59 23.02657 113.18660 18634 ft 410 kts 162°
2026-05-06 13:00 23.00007 113.19794 18938 ft 411 kts 166°
2026-05-06 13:00 22.97267 113.20723 19238 ft 412 kts 168°
2026-05-06 13:00 22.94474 113.21639 19535 ft 415 kts 167°
2026-05-06 13:00 22.91712 113.22564 19846 ft 417 kts 167°
2026-05-06 13:01 22.88971 113.23497 20137 ft 419 kts 167°
2026-05-06 13:01 22.86184 113.24453 20438 ft 422 kts 167°
2026-05-06 13:01 22.83375 113.25422 20749 ft 424 kts 167°
2026-05-06 13:01 22.80561 113.26394 21067 ft 426 kts 167°
2026-05-06 13:02 22.77728 113.27375 21384 ft 428 kts 167°
2026-05-06 13:02 22.74880 113.28360 21709 ft 431 kts 167°
2026-05-06 13:02 22.72023 113.29349 22012 ft 433 kts 167°
2026-05-06 13:02 22.69147 113.30344 22306 ft 435 kts 167°
2026-05-06 13:03 22.66256 113.31345 22622 ft 437 kts 167°
2026-05-06 13:03 22.63354 113.32348 22933 ft 439 kts 167°
2026-05-06 13:03 22.60430 113.33359 23236 ft 442 kts 167°
2026-05-06 13:03 22.57494 113.34355 23527 ft 443 kts 167°
2026-05-06 13:04 22.54543 113.35349 23783 ft 445 kts 167°
2026-05-06 13:04 22.51581 113.36351 24004 ft 448 kts 167°
2026-05-06 13:04 22.48602 113.37365 24240 ft 450 kts 167°
2026-05-06 13:04 22.45608 113.38391 24472 ft 453 kts 167°
2026-05-06 13:05 22.42629 113.39419 24533 ft 442 kts 167°
2026-05-06 13:05 22.39744 113.40419 24543 ft 430 kts 167°
2026-05-06 13:05 22.36906 113.41400 24546 ft 427 kts 167°
2026-05-06 13:05 22.34076 113.42373 24539 ft 427 kts 167°
2026-05-06 13:06 22.31241 113.43344 24549 ft 427 kts 167°
2026-05-06 13:06 22.28410 113.44314 24529 ft 427 kts 167°
2026-05-06 13:06 22.25585 113.45283 24539 ft 426 kts 167°
2026-05-06 13:06 22.22757 113.46255 24539 ft 426 kts 167°
2026-05-06 13:07 22.19939 113.47235 24541 ft 426 kts 166°
2026-05-06 13:07 22.17122 113.48256 24537 ft 426 kts 166°
2026-05-06 13:07 22.14321 113.49291 24539 ft 426 kts 166°
2026-05-06 13:07 22.11509 113.50336 24538 ft 426 kts 166°
2026-05-06 13:08 22.08704 113.51376 24538 ft 426 kts 166°
2026-05-06 13:08 22.05904 113.52409 24538 ft 426 kts 166°
2026-05-06 13:08 22.03099 113.53440 24539 ft 426 kts 166°
2026-05-06 13:08 22.00299 113.54476 24583 ft 428 kts 165°
2026-05-06 13:09 21.97538 113.55794 24643 ft 439 kts 157°
2026-05-06 13:09 21.94807 113.57335 24777 ft 447 kts 156°